This is the latest recevied weather packets stored in our database for station/object DM4XI-13. If no packets are shown the sender has not sent any weather packets the latest 10 day(s).
| Time | Temp. | Humidity | Pressure | Rain* | Wind** | Luminosity | Snow |
|---|---|---|---|---|---|---|---|
| 1777218453 | 16.11° C | 27% | 1019.5 hPa | 0 mm | 1.34 m/s, 56° | 165 W/m² | - |
| 1777218392 | 16.11° C | 28% | 1019.4 hPa | 0 mm | 0.89 m/s, 3° | 163 W/m² | - |
| 1777218331 | 16.11° C | 28% | 1019.5 hPa | 0 mm | 0.45 m/s, 8° | 165 W/m² | - |
| 1777218270 | 16.67° C | 28% | 1019.5 hPa | 0 mm | 0.89 m/s, 314° | 164 W/m² | - |
| 1777218209 | 16.67° C | 27% | 1019.3 hPa | 0 mm | 1.34 m/s, 256° | 165 W/m² | - |
| 1777218148 | 16.67° C | 27% | 1019.4 hPa | 0 mm | 0.89 m/s, 155° | 159 W/m² | - |
| 1777218087 | 16.67° C | 27% | 1019.3 hPa | 0 mm | 0.45 m/s, 184° | 150 W/m² | - |
| 1777218026 | 16.67° C | 26% | 1019.5 hPa | 0 mm | 0.89 m/s, 115° | 184 W/m² | - |
| 1777217965 | 16.67° C | 27% | 1019.6 hPa | 0 mm | 0.45 m/s, 204° | 182 W/m² | - |
| 1777217904 | 16.67° C | 26% | 1019.4 hPa | 0 mm | 0.89 m/s, 101° | 178 W/m² | - |
| 1777217843 | 16.67° C | 26% | 1019.3 hPa | 0 mm | 1.34 m/s, 135° | 154 W/m² | - |
| 1777217782 | 16.67° C | 27% | 1019.5 hPa | 0 mm | 0.89 m/s, 191° | 146 W/m² | - |
| 1777217721 | 16.67° C | 27% | 1019.4 hPa | 0 mm | 0 m/s | 145 W/m² | - |
| 1777217659 | 17.22° C | 26% | 1019.5 hPa | 0 mm | 0 m/s | 141 W/m² | - |
| 1777217599 | 17.22° C | 25% | 1019.6 hPa | 0 mm | 0.45 m/s, 42° | 141 W/m² | - |
| 1777217538 | 17.22° C | 25% | 1019.5 hPa | 0 mm | 0.89 m/s, 21° | 147 W/m² | - |
| 1777217477 | 17.22° C | 24% | 1019.4 hPa | 0 mm | 0 m/s | 150 W/m² | - |
| 1777217416 | 17.22° C | 25% | 1019.5 hPa | 0 mm | 0.45 m/s, 312° | 158 W/m² | - |
| 1777217354 | 17.22° C | 26% | 1019.5 hPa | 0 mm | 0 m/s | 159 W/m² | - |
| 1777217293 | 17.22° C | 26% | 1019.5 hPa | 0 mm | 0.45 m/s, 210° | 162 W/m² | - |
| 1777217233 | 17.22° C | 26% | 1019.5 hPa | 0 mm | 0.45 m/s, 21° | 185 W/m² | - |
| 1777217172 | 17.22° C | 27% | 1019.5 hPa | 0 mm | 0.89 m/s, 322° | 211 W/m² | - |
| 1777217111 | 17.22° C | 28% | 1019.5 hPa | 0 mm | 0.89 m/s, 273° | 228 W/m² | - |
| 1777217049 | 17.22° C | 26% | 1019.4 hPa | 0 mm | 0.89 m/s, 243° | 244 W/m² | - |
| 1777216989 | 17.22° C | 27% | 1019.6 hPa | 0 mm | 0.89 m/s, 277° | 253 W/m² | - |
* Rain latest hour (hover to see other rain measurements)
** Current wind speed in m/s (hover to see current wind gust speed)